This demonstration page uses our WeatherBlox Daily Observations layout. Learn more.

Left ArrowRight Arrow

39.01783, -85.05884

Hourly Observations for August 30, 2015

Temp ( °F °C ) Dew Point ( °F °C ) Humidity (%) Winds ( mph kmh ) Pressure ( in mb ) Visibility ( mi km ) Precip ( " mm )
12:52 am 00:52 Mostly Cloudy 72 22.2 67 19.4 84 84 SSW 5 7 30.05 1018 10 16.0934 N/A
1:52 am 01:52 Partly Cloudy 69 20.6 66 18.9 90 90 S 6 9 30.05 1018 9 14.48406 N/A
2:52 am 02:52 Mostly Cloudy 68 20 65 18.3 90 90 S 3 6 30.05 1018 10 16.0934 N/A
3:52 am 03:52 Mostly Cloudy 66 18.9 64 17.8 93 93 SSW 5 7 30.05 1018 10 16.0934 N/A
4:52 am 04:52 Mostly Cloudy 65 18.3 64 17.8 97 97 S 6 9 30.05 1018 10 16.0934 N/A
5:52 am 05:52 Partly Cloudy 67 19.4 65 18.3 93 93 N N/A 30.06 1018 10 16.0934 N/A
6:52 am 06:52 Mostly Cloudy 66 18.9 64 17.8 93 93 N N/A 30.07 1018 10 16.0934 N/A
7:52 am 07:52 Mostly Cloudy 67 19.4 66 18.9 97 97 S 3 6 30.08 1019 10 16.0934 N/A
8:52 am 08:52 Mostly Cloudy 69 20.6 67 19.4 93 93 S 6 9 30.09 1019 8 12.87472 N/A
9:52 am 09:52 Mostly Cloudy 73 22.8 68 20 84 84 SSW 10 17 30.09 1019 10 16.0934 N/A
10:52 am 10:52 Mostly Cloudy 75 23.9 69 20.6 82 82 SSW 6 9 30.1 1019 10 16.0934 N/A
11:52 am 11:52 Mostly Cloudy 78 25.6 70 21.1 76 76 S 7 11 30.1 1019 10 16.0934 N/A
12:52 pm 12:52 Mostly Cloudy 81 27.2 70 21.1 69 69 SSW 6 9 30.09 1019 10 16.0934 N/A
1:06 pm 13:06 Mostly Cloudy 82 28 72 22 70 70 S 8 13 30.09 1019 10 16.0934 N/A
1:52 pm 13:52 Mostly Cloudy 83 28.3 70 21.1 65 65 SW 7 11 30.07 1018 10 16.0934 N/A
2:22 pm 14:22 Mostly Cloudy 84 29 70 21 62 62 SSW 9 15 30.03 1017 10 16.0934 N/A
2:52 pm 14:52 Mostly Cloudy 85 29.4 69 20.6 59 59 SW 9 15 30.05 1018 10 16.0934 N/A
3:52 pm 15:52 Mostly Cloudy 86 30 64 17.8 48 48 SSW 9 15 30.04 1017 10 16.0934 N/A
4:52 pm 16:52 Mostly Cloudy 83 28.3 63 17.2 51 51 S 13 20 30.03 1017 10 16.0934 N/A
5:52 pm 17:52 Mostly Cloudy 77 25 63 17.2 62 62 SSW 8 13 30.03 1017 10 16.0934 N/A
6:52 pm 18:52 Mostly Cloudy 77 25 67 19.4 71 71 N N/A 30.04 1017 10 16.0934 N/A
7:52 pm 19:52 Mostly Cloudy 76 24.4 68 20 77 77 N N/A 30.04 1017 10 16.0934 N/A
8:52 pm 20:52 Mostly Cloudy 75 23.9 68 20 79 79 SSW 3 6 30.05 1018 10 16.0934 N/A
9:52 pm 21:52 Mostly Cloudy 70 21.1 68 20 93 93 S 5 7 30.06 1018 8 12.87472 N/A
10:52 pm 22:52 Mostly Cloudy 73 22.8 68 20 84 84 SSW 5 7 30.06 1018 10 16.0934 N/A
11:52 pm 23:52 Mostly Cloudy 72 22.2 67 19.4 84 84 SSW 6 9 30.06 1018 10 16.0934 N/A

Powered by AerisWeather